Regional Weather Roundup
Issued by NWS New Orleans/Baton Rouge, LA

Home | Current Version | Previous Version | Graphics & Text | Print | Product List | Glossary On
Versions: 1 2 3 4 5 6 7 8 9 10 11 12 13 14 15 16 17 18 19 20 21 22 23 24 25 26 27 28 29 30 31 32 33 34 35 36 37 38 39 40 41 42 43 44 45 46 47 48 49 50
781
ASUS44 KLIX 290605
RWRLIX
NEW ORLEANS REGIONAL WEATHER ROUNDUP
NATIONAL WEATHER SERVICE NEW ORLEANS LA
100 AM CDT FRI AUG 29 2014

NOTE: "FAIR" INDICATES FEW OR NO CLOUDS BELOW 12,000 FEET WITH NO
      SIGNIFICANT WEATHER AND/OR OBSTRUCTIONS TO VISIBILITY.
      SKY/WX - SKY CONDITION AND SIGNIFICANT WEATHER.
      TMP - AIR TEMPERATURE.     DP    - DEWPOINT TEMPERATURE.
      RH  - RELATIVE HUMIDITY.   PRES  - PRESSURE.
      HI  - HEAT INDEX.          WCI   - WIND CHILL INDEX.

*  THESE STATIONS ARE NOT NWS OR FAA STATIONS AND ARE NOT UNDER
   NWS QUALITY CONTROL.

LAZ038-040-048-061>063-065>067-069-290700-
SOUTHEAST LOUISIANA

CITY           SKY/WX    TMP DP  RH WIND       PRES   REMARKS
N.O. AUDUBON     N/A     81  76  85 MISG        N/A
6HR MIN TEMP:  81; 6HR MAX TEMP:  88;

N.O. INTL ARPT   N/A     81  73  76 CALM      29.96S
6HR MIN TEMP:  81; 6HR MAX TEMP:  87;

N.O. LAKEFRONT   N/A     81  74  79 E6        29.96F
6HR MIN TEMP:  81; 6HR MAX TEMP:  86;

N.O. DOWNTOWN*   N/A     82  72  69 CALM      29.96F
6HR MIN TEMP:  82; 6HR MAX TEMP:  88;

SLIDELL          N/A     74  71  91 N3        29.96F
6HR MIN TEMP:  74; 6HR MAX TEMP:  85;

BATON ROUGE      N/A     78  73  84 CALM      29.96F
6HR MIN TEMP:  78; 6HR MAX TEMP:  83;

BOOTHVILLE       N/A     82  76  81 E5        29.95F
6HR MIN TEMP:  82; 6HR MAX TEMP:  85;

BELLE CHASSE     N/A     76  72  87 CALM      29.95F
6HR MIN TEMP:  76; 6HR MAX TEMP:  85;

BOGALUSA*        N/A     75  71  88 CALM      29.99F
6HR MIN TEMP:  75; 6HR MAX TEMP:  86;

GALLIANO*      NOT AVBL
NEW ROADS*       N/A     78  75  89 CALM      29.97S
6HR MIN TEMP:  78; 6HR MAX TEMP:  85;

GONZALES*        N/A     75  75 100 CALM      29.95F
6HR MIN TEMP:  75; 6HR MAX TEMP:  86;

HAMMOND*         N/A     75  72  88 CALM      29.98F
HOUMA*           N/A     76  72  86 NE3       29.94F
6HR MIN TEMP:  75; 6HR MAX TEMP:  85; 6HR PCP:  0.03;

PORT FOURCHON* MOCLDY    84  75  74 SE12      29.96S

$$

MSZ070-080>082-290700-
SOUTHERN MISSISSIPPI

CITY           SKY/WX    TMP DP  RH WIND       PRES   REMARKS
MCCOMB           N/A     78  71  79 CALM      29.99S
6HR MIN TEMP:  77; 6HR MAX TEMP:  86;

GULFPORT         N/A     76  72  87 CALM      29.96F
6HR MIN TEMP:  76; 6HR MAX TEMP:  86;

BILOXI           N/A     78  73  84 E3        29.97F
6HR MIN TEMP:  78; 6HR MAX TEMP:  84;

PASCAGOULA       N/A     71  70  96 CALM      29.98F FOG
6HR MIN TEMP:  71; 6HR MAX TEMP:  78;


$$

COASTAL OBSERVATIONS
LAKE AND NEARSHORE STATIONS

STATION/POSITION TIME  TEMP    WIND        PRES    WAVE
                       AIR SEA DIR/SP/G            HT/PER
                 (UTC) (F)     (DEG/KT/KT) (MB)    (FT/S)
PASCAGOULA       0500   83     130/  5/  7 1014.6
WAVELAND YACHT   0500   84     150/  8/ 11 1014.3
GRAND ISLE       0500   84 84  110/  6/ 12 1014.8
SOUTHWEST PASS   0500   84 89  110/ 16/ 17 1014.3
NEW CANAL        0500   81 84   CALM  /  2 1015.0
SHELL BEACH      0500   83 82  120/  8/  9 1014.4

OFFSHORE STATIONS

STATION/POSITION TIME  TEMP    WIND        PRES    WAVE
                       AIR SEA DIR/SP/G            HT/PER
                 (UTC) (F)     (DEG/KT/KT) (MB)    (FT/S)
64 S DAUPHIN ISL 0524   85 85  110/ 12/ 14 1014.5

$$




USA.gov is the U.S. government's official web portal to all federal, state and local government web resources and services.